sat.trackr.live / text

‹ back to catalog

STARLINK-37436

NORAD 69365 · 2026-123N

PAYLOAD ACTIVE UNKNOWN

§ Identity

Operator
Country
US
Launch date
2026-06-04
Launch site
AFETR
Launch vehicle
Mass (kg)
RCS (m²)

Purposes: comms

External: N2YO · Heavens-Above · Gunter

§ Orbital elements

Epoch: 2026-09-19T22:09:57.217824Z

Period
93.85 min
Inclination
53.1608°
Eccentricity
0.0001522
Mean motion
15.34402361 rev/d
Perigee alt
461.7 km
Apogee alt
463.7 km
Semi-major
6,840.8 km
B*
2.6372e-4
RAAN
144.2563°
Arg perigee
78.5921°
Mean anomaly
281.5253°
Rev number
1,678

§ Raw data

STARLINK-374361 69365U 26123N   26262.92357891  .00008545  00000+0  26372-3 0  99992 69365  53.1608 144.2563 0001522  78.5921 281.5253 15.34402361 16788

JSON: /api/v1/satellites/69365 · /tle

For live sub-satellite position, see the globe view (requires WebGL).

§ Visibility from observer

Set your observer location to see the next 7 days of passes ≥ 10°. The values pass through the URL so the page stays shareable.

No JS? Fill the form by hand. The geolocation button needs JavaScript.